Pleasanton, TX

11:32 PM CDT on May 25, 2017 (GMT -0500)
Pleasanton Municipal

Weather History for KPEZ - February, 2013

Change the Weather History Date:

Friday, February 8, 2013

  Actual Average Record
Temperature  
Mean Temperature - -  
Max Temperature - 72 °F 91 °F (2017)
Min Temperature - 43 °F 31 °F (2011)
Moisture  
Dew Point -    
Average Humidity    
Maximum Humidity    
Minimum Humidity    
Precipitation  
Precipitation 0.00 in - - ()
Sea Level Pressure  
Sea Level Pressure 30.14 in    
Wind  
Wind Speed 7 mph (NNE)    
Max Wind Speed 17 mph    
Max Gust Speed 28 mph    
Visibility 10 miles    
Events      
Averages and records for this station are not official NWS values.
T = Trace of Precipitation, MM = Missing Value Source: NWS Daily Summary

Daily Weather History Graph

Daily Weather History Graph

Search for Another Location

Airport or City:

Trip Planner

Search our weather history database for the weather conditions in past years. The results will help you decide how hot, cold, wet, or windy it might be!

Date:

Astronomy

Feb. 08, 2013 Rise Set
Actual Time 7:17 AM CST 6:18 PM CST
Civil Twilight 6:53 AM CST 6:43 PM CST
Nautical Twilight 6:25 AM CST 7:11 PM CST
Astronomical Twilight 5:57 AM CST 7:39 PM CST
Moon 5:44 AM CST (2/8) 4:56 PM CST (2/8)
Length of Visible Light 11h 49m
Length of Day
11h 00m
Waning Crescent, 3% of the Moon is Illuminated
Feb 8
Waning Crescent
Feb 10
New
Feb 17
First Quarter
Feb 25
Full
Mar 4
Last Quarter

Hourly Weather History & Observations

Time (CST) Temp. Dew Point Humidity Pressure Visibility Wind Dir Wind Speed Gust Speed Precip Events Conditions
12:15 AM - - N/A% 30.05 in 7.0 mi North 9.2 mph - N/A   Clear
12:35 AM - - N/A% 30.05 in 10.0 mi NNE 10.4 mph 16.1 mph N/A   Clear
12:55 AM - - N/A% 30.06 in 10.0 mi North 8.1 mph - N/A   Clear
1:15 AM - - N/A% 30.07 in 7.0 mi North 9.2 mph - N/A   Clear
1:35 AM - - N/A% 30.08 in 10.0 mi NNE 6.9 mph - N/A   Clear
1:55 AM - - N/A% 30.08 in 10.0 mi North 6.9 mph - N/A   Clear
2:15 AM - - N/A% 30.08 in 10.0 mi North 6.9 mph - N/A   Clear
2:35 AM - - N/A% 30.08 in 10.0 mi North 5.8 mph - N/A   Clear
2:55 AM - - N/A% 30.08 in 10.0 mi NNE 6.9 mph - N/A   Clear
3:35 AM - - N/A% 30.10 in 10.0 mi NNE 3.5 mph - N/A   Clear
3:55 AM - - N/A% 30.11 in 10.0 mi North 3.5 mph - N/A   Clear
4:15 AM - - N/A% 30.11 in 10.0 mi NNE 5.8 mph - N/A   Clear
4:35 AM - - N/A% 30.12 in 10.0 mi NNE 4.6 mph - N/A   Clear
4:55 AM - - N/A% 30.13 in 10.0 mi NNE 5.8 mph - N/A   Clear
5:15 AM - - N/A% 30.14 in 10.0 mi NNE 4.6 mph - N/A   Clear
5:35 AM - - N/A% 30.16 in 10.0 mi North 4.6 mph - N/A   Clear
5:55 AM - - N/A% 30.17 in 10.0 mi North 3.5 mph - N/A   Clear
6:15 AM - - N/A% 30.17 in 10.0 mi North 4.6 mph - N/A   Clear
6:35 AM - - N/A% 30.18 in 10.0 mi North 5.8 mph - N/A   Clear
6:55 AM - - N/A% 30.18 in 7.0 mi North 5.8 mph - N/A   Clear
7:15 AM - - N/A% 30.19 in 10.0 mi North 5.8 mph - N/A   Clear
7:35 AM - - N/A% 30.20 in 10.0 mi North 4.6 mph - N/A   Clear
7:55 AM - - N/A% 30.20 in 10.0 mi NNE 4.6 mph - N/A   Clear
8:15 AM - - N/A% 30.20 in 7.0 mi NNE 5.8 mph - N/A   Clear
8:35 AM - - N/A% 30.21 in 10.0 mi NNE 9.2 mph - N/A   Clear
8:55 AM - - N/A% 30.22 in 10.0 mi North 6.9 mph - N/A   Clear
9:15 AM - - N/A% 30.22 in 10.0 mi North 10.4 mph 18.4 mph N/A   Clear
9:35 AM - - N/A% 30.23 in 10.0 mi NNE 10.4 mph 19.6 mph N/A   Clear
9:55 AM - - N/A% 30.23 in 10.0 mi NNE 17.3 mph 21.9 mph N/A   Clear
10:15 AM - - N/A% 30.23 in 10.0 mi NNE 11.5 mph - N/A   Clear
10:35 AM - - N/A% 30.23 in 10.0 mi NNE 9.2 mph - N/A   Clear
11:15 AM - - N/A% 30.23 in 10.0 mi NNE 11.5 mph 17.3 mph N/A   Clear
11:35 AM - - N/A% 30.22 in 10.0 mi NNE 11.5 mph 18.4 mph N/A   Clear
11:55 AM - - N/A% 30.21 in 10.0 mi North 8.1 mph 27.6 mph N/A   Clear
12:15 PM - - N/A% 30.21 in 10.0 mi NNE 10.4 mph - N/A   Clear
12:35 PM - - N/A% 30.20 in 10.0 mi NNE 8.1 mph - N/A   Clear
12:55 PM - - N/A% 30.19 in 10.0 mi NNE 8.1 mph 16.1 mph N/A   Clear
1:15 PM - - N/A% 30.18 in 10.0 mi ENE 6.9 mph - N/A   Clear
1:35 PM - - N/A% 30.16 in 10.0 mi East 8.1 mph 17.3 mph N/A   Clear
1:55 PM - - N/A% 30.15 in 10.0 mi ENE 4.6 mph - N/A   Clear
2:15 PM - - N/A% 30.14 in 10.0 mi NE 10.4 mph - N/A   Clear
2:35 PM - - N/A% 30.13 in 10.0 mi NE 3.5 mph - N/A   Clear
2:55 PM - - N/A% 30.13 in 10.0 mi ENE 9.2 mph - N/A   Clear
3:15 PM - - N/A% 30.13 in 10.0 mi NE 6.9 mph - N/A   Clear
3:35 PM - - N/A% 30.11 in 10.0 mi ENE 9.2 mph - N/A   Clear
3:55 PM - - N/A% 30.11 in 10.0 mi East 10.4 mph - N/A   Clear
4:15 PM - - N/A% 30.11 in 10.0 mi NE 6.9 mph - N/A   Clear
4:35 PM - - N/A% 30.11 in 10.0 mi East 8.1 mph - N/A   Clear
4:55 PM - - N/A% 30.10 in 10.0 mi ENE 10.4 mph - N/A   Clear
5:15 PM - - N/A% 30.10 in 10.0 mi ENE 8.1 mph - N/A   Clear
5:35 PM - - N/A% 30.11 in 10.0 mi ENE 4.6 mph - N/A   Scattered Clouds
5:55 PM - - N/A% 30.11 in 10.0 mi East 6.9 mph - N/A   Scattered Clouds
6:15 PM - - N/A% 30.10 in 10.0 mi East 3.5 mph - N/A   Scattered Clouds
6:35 PM - - N/A% 30.10 in 10.0 mi East 3.5 mph - N/A   Scattered Clouds
6:55 PM - - N/A% 30.10 in 10.0 mi Calm Calm - N/A   Scattered Clouds
7:15 PM - - N/A% 30.10 in 10.0 mi Calm Calm - N/A   Clear
7:35 PM - - N/A% 30.10 in 10.0 mi Calm Calm - N/A   Clear
7:55 PM - - N/A% 30.10 in 10.0 mi Calm Calm - N/A   Clear
8:15 PM - - N/A% 30.10 in 10.0 mi East 3.5 mph - N/A   Clear
8:35 PM - - N/A% 30.10 in 10.0 mi Calm Calm - N/A   Clear
8:55 PM - - N/A% 30.10 in 10.0 mi Calm Calm - N/A   Clear
9:15 PM - - N/A% 30.11 in 10.0 mi Calm Calm - N/A   Scattered Clouds
9:35 PM - - N/A% 30.11 in 10.0 mi Calm Calm - N/A   Scattered Clouds
9:55 PM - - N/A% 30.10 in 10.0 mi NE 3.5 mph - N/A   Scattered Clouds
10:15 PM - - N/A% 30.10 in 10.0 mi Calm Calm - N/A   Scattered Clouds
10:35 PM - - N/A% 30.10 in 10.0 mi Calm Calm - N/A   Scattered Clouds
10:55 PM - - N/A% 30.09 in 10.0 mi Calm Calm - N/A   Clear
11:15 PM - - N/A% 30.09 in 10.0 mi Calm Calm - N/A   Clear
11:35 PM - - N/A% 30.08 in 10.0 mi ENE 3.5 mph - N/A   Clear
11:55 PM - - N/A% 30.08 in 10.0 mi ENE 3.5 mph - N/A   Clear